Вернуться в каталог

STARLINK-36222

АктивенСвязьVLEO
NORAD 67097·PAYLOAD·🇺🇸 United States

Запущен Dec 14, 2025 с Vandenberg Space Force Base

Loading…

Ближайшие Пролёты (ближайшие 24 часа)

TLE

СвежийSource: CelesTrak SupGP

Эпоха: Sep 14, 2026, 21:03 UTC

1 67097C 25298Y   26257.87756944  .00073476  00000+0  61575-2 0  2576
2 67097  69.9995 257.5648 0003865 263.8628  64.5701 14.98291998    16

Отслеживайте STARLINK-36222 в реальном времени с AllMySat

Download on the App Store